Time,TemperatureF,DewpointF,PressureIn,WindDirection,WindDirectionDegrees,WindSpeedMPH,WindSpeedGustMPH,Humidity,HourlyPrecipIn,Conditions,Clouds,dailyrainin,SoftwareType,DateUTC
2013-06-21 08:05:00,79.0,-29.7,30.23,SSE,157,3.0,3.0,1,0.00,,,0.00,Weather View 32 v70,2013-06-21 12:05:00,
2013-06-21 10:10:00,84.0,84.0,30.31,East,90,3.0,3.0,100,0.00,,,0.00,Weather View 32 v70,2013-06-21 14:10:00,
2013-06-21 11:20:00,73.0,73.0,30.26,NNW,337,9.0,12.0,100,0.00,,,0.55,Weather View 32 v70,2013-06-21 15:20:00,
2013-06-21 11:25:00,73.0,73.0,30.25,North,360,0.0,12.0,100,0.00,,,0.57,Weather View 32 v70,2013-06-21 15:25:00,
2013-06-21 11:30:00,73.0,73.0,30.25,North,360,6.0,12.0,100,0.00,,,0.57,Weather View 32 v70,2013-06-21 15:30:00,
2013-06-21 11:35:00,74.0,74.0,30.25,North,360,4.0,12.0,100,0.00,,,0.57,Weather View 32 v70,2013-06-21 15:35:00,
2013-06-21 11:45:00,75.0,75.0,30.25,North,360,2.0,12.0,100,0.00,,,0.57,Weather View 32 v70,2013-06-21 15:45:00,
2013-06-21 11:50:00,75.0,75.0,30.25,North,360,3.0,12.0,100,0.00,,,0.57,Weather View 32 v70,2013-06-21 15:50:00,
2013-06-21 11:55:00,76.0,-31.5,30.25,ENE,67,0.0,12.0,1,0.00,,,0.57,Weather View 32 v70,2013-06-21 15:55:00,
2013-06-21 12:00:00,76.0,75.4,30.26,ENE,67,1.0,12.0,98,0.00,,,0.57,Weather View 32 v70,2013-06-21 16:00:00,
2013-06-21 12:05:00,77.0,77.0,30.26,NNW,337,0.0,12.0,100,0.00,,,0.57,Weather View 32 v70,2013-06-21 16:05:00,
2013-06-21 13:15:00,77.0,77.0,30.27,South,180,3.0,6.0,100,0.00,,,0.58,Weather View 32 v70,2013-06-21 17:15:00,
2013-06-21 14:00:00,78.0,-30.3,30.26,NNW,337,0.0,3.0,1,0.00,,,0.58,Weather View 32 v70,2013-06-21 18:00:00,
2013-06-21 14:10:00,79.0,79.0,30.27,NNW,337,0.0,3.0,100,0.00,,,0.58,Weather View 32 v70,2013-06-21 18:10:00,
2013-06-21 14:14:00,79.0,79.0,30.27,NNW,337,0.0,3.0,100,0.00,,,0.58,Weather View 32 v70,2013-06-21 18:14:00,
2013-06-21 14:25:00,79.0,79.0,30.26,NNW,337,4.0,4.0,100,0.00,,,0.58,Weather View 32 v70,2013-06-21 18:25:00,
2013-06-21 14:55:00,82.0,82.0,30.26,NNW,337,0.0,4.0,100,0.00,,,0.58,Weather View 32 v70,2013-06-21 18:55:00,
2013-06-21 15:25:00,85.0,85.0,30.27,NNW,337,2.0,5.0,100,0.00,,,0.58,Weather View 32 v70,2013-06-21 19:25:00,
2013-06-21 15:30:00,83.0,83.0,30.27,NNW,337,5.0,6.0,100,0.00,,,0.58,Weather View 32 v70,2013-06-21 19:30:00,
2013-06-21 17:25:00,84.0,84.0,30.25,WSW,247,0.0,6.0,100,0.00,,,0.58,Weather View 32 v70,2013-06-21 21:25:00,
2013-06-21 19:20:00,76.0,-31.5,30.26,ENE,67,7.0,10.0,1,0.00,,,0.58,Weather View 32 v70,2013-06-21 23:20:00,
2013-06-21 20:40:00,74.0,72.8,30.22,ENE,67,1.0,1.0,96,0.00,,,0.60,Weather View 32 v70,2013-06-22 00:40:00,
2013-06-21 20:50:00,73.0,73.0,30.23,ENE,67,0.0,1.0,100,0.00,,,0.60,Weather View 32 v70,2013-06-22 00:50:00,
2013-06-21 22:05:00,73.0,71.2,30.23,ENE,67,0.0,0.0,94,0.00,,,0.60,Weather View 32 v70,2013-06-22 02:05:00,
2013-06-21 22:15:00,73.0,70.5,30.23,ENE,67,2.0,3.0,92,0.00,,,0.60,Weather View 32 v70,2013-06-22 02:15:00,
2013-06-21 23:25:00,73.0,67.2,30.24,North,360,4.0,4.0,82,0.00,,,0.60,Weather View 32 v70,2013-06-22 03:25:00,
2013-06-21 23:30:00,73.0,68.5,30.23,ENE,67,3.0,4.0,86,0.00,,,0.60,Weather View 32 v70,2013-06-22 03:30:00,